When you browse on this site, cookies collect data to enhance your experience and personalize the content and advertising you see.
Visit our Privacy Policy to learn more. By continuing to use the site, you agree to this use of cookies and data.
  • en Suisse
  • Liste des pays
  • À 7 jours
  • Température de l'eau
  • Carte satellitaire
  • Carte météo
  • Widgets météo
  • user-avatar
    Se connecter

    Météo par heure à Barinas

    Ce jour, 24 Juillet, Mercredi

    Heure Température Précipitation Vent Pression Humidité
    00:00 +25°C° 0 mm 1 m/s 744 mmHg 77%
    01:00 +25°C° 0 mm 1 m/s 744 mmHg 73%
    02:00 +24°C° 1 mm 1 m/s 744 mmHg 76%
    03:00 +22°C° 1 mm 0 m/s 744 mmHg 78%
    04:00 +22°C° 1 mm 0 m/s 743 mmHg 80%
    05:00 +24°C° 2 mm 1 m/s 744 mmHg 84%
    06:00 +23°C° 2 mm 1 m/s 744 mmHg 88%
    07:00 +23°C° 2 mm 1 m/s 745 mmHg 92%
    08:00 +24°C° 1.2 mm 1 m/s 745 mmHg 91%
    09:00 +25°C° 1.2 mm 1 m/s 745 mmHg 90%
    10:00 +26°C° 1.2 mm 1 m/s 746 mmHg 89%
    11:00 +28°C° 0.1 mm 1 m/s 745 mmHg 80%
    12:00 +30°C° 0.1 mm 1 m/s 744 mmHg 71%
    13:00 +32°C° 0.1 mm 1 m/s 744 mmHg 62%
    14:00 +31°C° 0 mm 2 m/s 743 mmHg 65%
    15:00 +31°C° 0 mm 2 m/s 743 mmHg 67%
    16:00 +31°C° 0 mm 2 m/s 742 mmHg 70%
    17:00 +29°C° 0.1 mm 2 m/s 742 mmHg 77%
    18:00 +28°C° 0.1 mm 1 m/s 742 mmHg 84%
    19:00 +26°C° 0.1 mm 1 m/s 743 mmHg 91%
    20:00 +25°C° 0 mm 1 m/s 743 mmHg 91%
    21:00 +25°C° 0 mm 1 m/s 744 mmHg 90%
    22:00 +24°C° 0 mm 1 m/s 744 mmHg 90%
    23:00 +24°C° 0 mm 1 m/s 744 mmHg 87%

    Demain, 25 Juillet, Jeudi

    Heure Température Précipitation Vent Pression Humidité
    00:00 +24°C° 0 mm 1 m/s 743 mmHg 84%
    01:00 +23°C° 0 mm 1 m/s 743 mmHg 81%
    02:00 +23°C° 0 mm 1 m/s 743 mmHg 78%
    03:00 +23°C° 0 mm 1 m/s 743 mmHg 74%
    04:00 +23°C° 0 mm 1 m/s 743 mmHg 70%
    05:00 +23°C° 0 mm 1 m/s 743 mmHg 69%
    06:00 +24°C° 0 mm 1 m/s 744 mmHg 68%
    07:00 +25°C° 0 mm 1 m/s 744 mmHg 67%
    08:00 +27°C° 0 mm 1 m/s 744 mmHg 64%
    09:00 +29°C° 0 mm 1 m/s 745 mmHg 62%
    10:00 +31°C° 0 mm 1 m/s 745 mmHg 60%
    11:00 +31°C° 0.1 mm 2 m/s 744 mmHg 62%
    12:00 +32°C° 0.1 mm 2 m/s 744 mmHg 64%
    13:00 +33°C° 0.1 mm 3 m/s 743 mmHg 65%
    14:00 +31°C° 0.6 mm 2 m/s 743 mmHg 69%
    15:00 +30°C° 0.6 mm 1 m/s 742 mmHg 73%
    16:00 +28°C° 0.6 mm 0 m/s 741 mmHg 77%
    17:00 +28°C° 0.1 mm 1 m/s 742 mmHg 81%
    18:00 +27°C° 0.1 mm 1 m/s 742 mmHg 86%
    19:00 +26°C° 0.1 mm 1 m/s 743 mmHg 90%
    20:00 +25°C° 0.1 mm 1 m/s 743 mmHg 91%
    21:00 +25°C° 0.1 mm 1 m/s 744 mmHg 91%
    22:00 +24°C° 0.1 mm 1 m/s 745 mmHg 92%
    23:00 +24°C° 0.3 mm 1 m/s 744 mmHg 91%

    Après-demain, 26 Juillet, Vendredi

    Heure Température Précipitation Vent Pression Humidité
    00:00 +24°C° 0.3 mm 1 m/s 744 mmHg 91%
    01:00 +23°C° 0.3 mm 1 m/s 743 mmHg 91%
    02:00 +23°C° 0.1 mm 1 m/s 743 mmHg 89%
    03:00 +23°C° 0.1 mm 1 m/s 743 mmHg 88%
    04:00 +23°C° 0.1 mm 1 m/s 743 mmHg 87%
    05:00 +23°C° 0 mm 1 m/s 744 mmHg 87%
    06:00 +24°C° 0 mm 1 m/s 744 mmHg 87%
    07:00 +24°C° 0 mm 1 m/s 745 mmHg 87%
    08:00 +26°C° 0.1 mm 1 m/s 745 mmHg 83%
    09:00 +27°C° 0.1 mm 2 m/s 745 mmHg 80%
    10:00 +28°C° 0.1 mm 2 m/s 746 mmHg 77%
    11:00 +29°C° 0.3 mm 2 m/s 745 mmHg 74%
    12:00 +30°C° 0.3 mm 2 m/s 745 mmHg 71%
    13:00 +31°C° 0.3 mm 2 m/s 744 mmHg 68%
    14:00 +31°C° 0.4 mm 1 m/s 743 mmHg 70%
    15:00 +30°C° 0.4 mm 1 m/s 743 mmHg 72%
    16:00 +30°C° 0.4 mm 1 m/s 743 mmHg 74%
    17:00 +29°C° 0.6 mm 1 m/s 743 mmHg 80%
    18:00 +27°C° 0.6 mm 1 m/s 743 mmHg 85%
    19:00 +26°C° 0.6 mm 1 m/s 744 mmHg 91%
    20:00 +25°C° 0.9 mm 1 m/s 744 mmHg 92%
    21:00 +25°C° 0.9 mm 1 m/s 745 mmHg 94%
    22:00 +24°C° 0.9 mm 1 m/s 745 mmHg 95%
    23:00 +24°C° 0 mm 1 m/s 745 mmHg 94%

    27 Juillet, Samedi

    Heure Température Précipitation Vent Pression Humidité
    00:00 +24°C° 0 mm 1 m/s 744 mmHg 93%
    01:00 +23°C° 0 mm 1 m/s 744 mmHg 92%
    02:00 +23°C° 0 mm 1 m/s 744 mmHg 91%
    03:00 +23°C° 0 mm 1 m/s 744 mmHg 89%
    04:00 +21°C° 0 mm 0 m/s 744 mmHg 87%
    05:00 +22°C° 0 mm 0 m/s 744 mmHg 86%
    06:00 +22°C° 0 mm 0 m/s 745 mmHg 84%
    07:00 +23°C° 0 mm 0 m/s 745 mmHg 82%
    08:00 +23°C° 1.4 mm 0 m/s 745 mmHg 87%
    09:00 +24°C° 1.4 mm 1 m/s 746 mmHg 91%
    10:00 +24°C° 1.4 mm 1 m/s 746 mmHg 95%
    11:00 +24°C° 1.9 mm 1 m/s 745 mmHg 95%
    12:00 +25°C° 1.9 mm 1 m/s 745 mmHg 95%
    13:00 +25°C° 1.9 mm 1 m/s 744 mmHg 94%
    14:00 +25°C° 0.5 mm 1 m/s 744 mmHg 92%
    15:00 +26°C° 0.5 mm 1 m/s 744 mmHg 89%
    16:00 +27°C° 0.5 mm 1 m/s 743 mmHg 86%
    17:00 +26°C° 0.5 mm 1 m/s 744 mmHg 89%
    18:00 +25°C° 0.5 mm 1 m/s 744 mmHg 92%
    19:00 +24°C° 0.5 mm 1 m/s 745 mmHg 95%
    20:00 +24°C° 0.1 mm 1 m/s 745 mmHg 94%
    21:00 +24°C° 0.1 mm 1 m/s 745 mmHg 93%
    22:00 +24°C° 0.1 mm 1 m/s 746 mmHg 93%
    23:00 +24°C° 0.1 mm 1 m/s 745 mmHg 92%

    28 Juillet, Dimanche

    Heure Température Précipitation Vent Pression Humidité
    00:00 +24°C° 0.1 mm 1 m/s 745 mmHg 92%
    01:00 +21°C° 0.1 mm 0 m/s 744 mmHg 91%
    02:00 +21°C° 0 mm 0 m/s 744 mmHg 91%
    03:00 +23°C° 0 mm 1 m/s 744 mmHg 91%
    04:00 +23°C° 0 mm 1 m/s 744 mmHg 91%
    05:00 +22°C° 0 mm 0 m/s 744 mmHg 91%
    06:00 +22°C° 0 mm 0 m/s 745 mmHg 90%
    07:00 +22°C° 0 mm 0 m/s 745 mmHg 90%
    08:00 +23°C° 0 mm 0 m/s 746 mmHg 86%
    09:00 +26°C° 0 mm 1 m/s 746 mmHg 83%
    10:00 +27°C° 0 mm 1 m/s 746 mmHg 80%
    11:00 +27°C° 0.3 mm 1 m/s 745 mmHg 81%
    12:00 +27°C° 0.3 mm 2 m/s 745 mmHg 83%
    13:00 +27°C° 0.3 mm 2 m/s 745 mmHg 84%
    14:00 +27°C° 0.7 mm 2 m/s 744 mmHg 84%
    15:00 +27°C° 0.7 mm 1 m/s 744 mmHg 83%
    16:00 +27°C° 0.7 mm 1 m/s 743 mmHg 83%
    17:00 +26°C° 0 mm 1 m/s 743 mmHg 87%
    18:00 +25°C° 0 mm 1 m/s 744 mmHg 92%
    19:00 +24°C° 0 mm 1 m/s 744 mmHg 96%
    20:00 +22°C° 0 mm 0 m/s 744 mmHg 96%
    21:00 +22°C° 0 mm 0 m/s 744 mmHg 96%
    22:00 +21°C° 0 mm 0 m/s 745 mmHg 95%
    23:00 +21°C° 0 mm 0 m/s 744 mmHg 95%

    29 Juillet, Lundi

    Heure Température Précipitation Vent Pression Humidité
    00:00 +21°C° 0 mm 0 m/s 744 mmHg 95%
    01:00 +23°C° 0 mm 1 m/s 744 mmHg 96%
    02:00 +21°C° 0 mm 0 m/s 743 mmHg 95%
    03:00 +21°C° 0 mm 0 m/s 743 mmHg 95%
    04:00 +21°C° 0 mm 0 m/s 743 mmHg 95%
    05:00 +21°C° 0 mm 0 m/s 744 mmHg 94%
    06:00 +22°C° 0 mm 0 m/s 744 mmHg 92%
    07:00 +23°C° 0 mm 0 m/s 745 mmHg 90%
    08:00 +26°C° 0.5 mm 1 m/s 745 mmHg 88%
    09:00 +27°C° 0.5 mm 1 m/s 745 mmHg 85%
    10:00 +28°C° 0.5 mm 1 m/s 745 mmHg 83%
    11:00 +28°C° 1.4 mm 1 m/s 745 mmHg 83%
    12:00 +29°C° 1.4 mm 1 m/s 744 mmHg 82%
    13:00 +29°C° 1.4 mm 2 m/s 744 mmHg 82%
    14:00 +28°C° 1.6 mm 2 m/s 743 mmHg 85%
    15:00 +28°C° 1.6 mm 2 m/s 742 mmHg 88%
    16:00 +27°C° 1.6 mm 2 m/s 742 mmHg 92%
    17:00 +26°C° 0 mm 2 m/s 742 mmHg 93%
    18:00 +25°C° 0 mm 1 m/s 742 mmHg 94%
    19:00 +25°C° 0 mm 1 m/s 742 mmHg 96%
    20:00 +24°C° 0 mm 1 m/s 743 mmHg 96%
    21:00 +24°C° 0 mm 1 m/s 744 mmHg 96%
    22:00 +22°C° 0 mm 0 m/s 744 mmHg 96%
    23:00 +22°C° 0 mm 0 m/s 744 mmHg 96%
    Voir plus